Hovedside
METAR-TAF:

METAR-TAF

Lufthavner :

Pärnu, Estland

Pärnu lufthavn

breddegrad: 58-25-09N, lengdegrad: 024-28-22E, høyde over havet: 14 m

Gjeldene værobservasjon

Denne rapporten ble laget for 9 timer og 48 minutter siden, klokken 12:50 UTC
Flau vind
Temperatur 25°C
Luftfuktighet 32%
Trykk 1010 hPa
Sikt 10 km eller mer
ingen skyer under 1500 m og ingen bygeskyer

METAR: EEPU 241250Z 00000KT CAVOK 25/07 Q1010

Tid: 01:38 (22:38 UTC)


TAF: fraværende

Værobservasjoner og værvarsel for over 4000 flyplasser (METAR- og TAF-rapporter).

Tilgjengelige stasjoner er representert av de røde og gule prikkene på kartet.

Hold musepekeren over prikken for å se navnet på stasjonen.

Klikk så for å se værobservasjoner og -varsler.

For å forandre kartet kan du klikke på den grønne knappen med svart kryss for å zoome inn, på den grønne knappen med strek for å zoome ut, eller på de grønne pilene for å se tilstøtende kart.


METAR-TAF: